Time,TemperatureF,DewpointF,PressureIn,WindDirection,WindDirectionDegrees,WindSpeedMPH,WindSpeedGustMPH,Humidity,HourlyPrecipIn,Conditions,Clouds,dailyrainin,SolarRadiationWatts/m^2,SoftwareType,DateUTC
2013-04-04 00:00:00,71.2,68.8,30.02,SSE,156,11.0,11.0,92,0.00,,,0.00,0,Wunderground v.1.15,2013-04-04 04:00:00,
2013-04-04 00:30:00,71.5,69.1,30.01,SSE,148,10.0,11.0,92,0.00,,,0.00,0,Wunderground v.1.15,2013-04-04 04:30:00,
2013-04-04 01:00:00,71.7,69.3,30.01,SE,126,5.0,5.0,92,0.00,,,0.00,0,Wunderground v.1.15,2013-04-04 05:00:00,
2013-04-04 01:30:00,71.4,69.0,30.00,SE,130,9.0,9.0,92,0.00,,,0.00,0,Wunderground v.1.15,2013-04-04 05:30:00,
2013-04-04 02:00:00,71.6,69.2,29.99,ESE,121,10.0,11.0,92,0.00,,,0.00,0,Wunderground v.1.15,2013-04-04 06:00:00,
2013-04-04 02:30:00,71.9,69.1,29.97,SSE,150,12.0,12.0,91,0.00,,,0.00,0,Wunderground v.1.15,2013-04-04 06:30:00,
2013-04-04 03:00:00,72.0,68.9,29.97,ESE,118,8.0,9.0,90,0.00,,,0.00,0,Wunderground v.1.15,2013-04-04 07:00:00,
2013-04-04 03:30:00,72.1,69.0,29.96,SSE,147,8.0,8.0,90,0.00,,,0.00,0,Wunderground v.1.15,2013-04-04 07:30:00,
2013-04-04 04:00:00,71.9,69.1,29.96,SSE,154,0.0,0.0,91,0.00,,,0.00,0,Wunderground v.1.15,2013-04-04 08:00:00,
2013-04-04 04:30:00,71.6,69.2,29.97,SSE,153,0.0,0.0,92,0.00,,,0.01,0,Wunderground v.1.15,2013-04-04 08:30:00,
2013-04-04 05:00:00,70.1,68.3,29.98,NW,325,5.0,9.0,94,0.32,,,0.12,0,Wunderground v.1.15,2013-04-04 09:00:00,
2013-04-04 05:30:00,68.0,66.8,29.98,WNW,288,10.0,10.0,96,0.35,,,0.26,0,Wunderground v.1.15,2013-04-04 09:30:00,
2013-04-04 06:00:00,68.7,67.5,29.99,SSW,196,0.0,0.0,96,0.29,,,0.44,0,Wunderground v.1.15,2013-04-04 10:00:00,
2013-04-04 06:30:00,69.0,67.8,29.98,SE,140,10.0,10.0,96,0.21,,,0.58,0,Wunderground v.1.15,2013-04-04 10:30:00,
2013-04-04 07:00:00,69.4,68.2,29.98,ESE,119,5.0,5.0,96,0.23,,,0.69,0,Wunderground v.1.15,2013-04-04 11:00:00,
2013-04-04 07:30:00,69.7,68.5,29.98,ESE,108,0.0,0.0,96,0.07,,,0.75,0,Wunderground v.1.15,2013-04-04 11:30:00,
2013-04-04 08:00:00,69.9,68.7,29.99,ESE,110,0.0,0.0,96,0.07,,,0.78,5,Wunderground v.1.15,2013-04-04 12:00:00,
2013-04-04 08:30:00,70.1,68.9,29.99,ESE,111,0.0,0.0,96,0.00,,,0.79,12,Wunderground v.1.15,2013-04-04 12:30:00,
2013-04-04 09:00:00,70.3,69.4,29.98,ESE,112,0.0,0.0,97,0.00,,,0.79,35,Wunderground v.1.15,2013-04-04 13:00:00,
2013-04-04 09:30:00,70.2,69.0,29.98,East,82,0.0,0.0,96,0.00,,,0.79,65,Wunderground v.1.15,2013-04-04 13:30:00,
2013-04-04 10:00:00,69.8,68.9,29.99,ENE,67,2.0,5.0,97,0.00,,,0.79,37,Wunderground v.1.15,2013-04-04 14:00:00,
2013-04-04 10:30:00,70.3,69.1,29.99,ENE,68,1.0,1.0,96,0.00,,,0.79,12,Wunderground v.1.15,2013-04-04 14:30:00,
2013-04-04 11:00:00,70.4,69.5,30.00,East,86,0.0,0.0,97,0.13,,,0.83,14,Wunderground v.1.15,2013-04-04 15:00:00,
2013-04-04 11:30:00,70.6,69.7,30.02,SE,143,1.0,1.0,97,0.08,,,0.88,9,Wunderground v.1.15,2013-04-04 15:30:00,
2013-04-04 12:00:00,66.2,65.0,30.09,West,278,18.0,21.0,96,0.08,,,0.92,9,Wunderground v.1.15,2013-04-04 16:00:00,
2013-04-04 12:30:00,66.1,64.9,30.05,NW,306,22.0,23.0,96,0.07,,,0.96,16,Wunderground v.1.15,2013-04-04 16:30:00,
2013-04-04 13:00:00,66.3,64.8,30.06,NW,315,7.0,7.0,95,0.06,,,0.99,25,Wunderground v.1.15,2013-04-04 17:00:00,
2013-04-04 13:30:00,66.6,65.1,30.07,NW,306,2.0,2.0,95,0.05,,,1.01,35,Wunderground v.1.15,2013-04-04 17:30:00,
2013-04-04 14:00:00,66.2,64.7,30.06,West,279,2.0,5.0,95,0.04,,,1.03,47,Wunderground v.1.15,2013-04-04 18:00:00,
2013-04-04 14:30:00,65.9,64.4,30.05,WNW,285,8.0,9.0,95,0.04,,,1.05,35,Wunderground v.1.15,2013-04-04 18:30:00,
2013-04-04 15:00:00,65.9,64.4,30.03,SE,139,0.0,0.0,95,0.04,,,1.06,62,Wunderground v.1.15,2013-04-04 19:00:00,
2013-04-04 15:30:00,66.4,64.9,30.02,SE,126,0.0,0.0,95,0.04,,,1.08,70,Wunderground v.1.15,2013-04-04 19:30:00,
2013-04-04 16:00:00,67.2,64.8,29.94,East,86,10.0,10.0,92,0.00,,,1.10,172,Wunderground v.1.15,2013-04-04 20:00:00,
2013-04-04 16:30:00,68.0,64.3,29.92,East,100,12.0,12.0,88,0.00,,,1.12,345,Wunderground v.1.15,2013-04-04 20:30:00,
2013-04-04 17:00:00,68.9,64.2,29.90,East,93,9.0,9.0,85,0.00,,,1.13,353,Wunderground v.1.15,2013-04-04 21:00:00,
2013-04-04 17:30:00,69.4,65.0,29.89,ESE,104,9.0,9.0,86,0.00,,,1.14,362,Wunderground v.1.15,2013-04-04 21:30:00,
2013-04-04 18:00:00,70.1,65.4,29.89,ESE,105,7.0,9.0,85,0.00,,,1.15,116,Wunderground v.1.15,2013-04-04 22:00:00,
2013-04-04 18:30:00,70.0,65.3,29.89,East,88,4.0,7.0,85,0.00,,,1.16,91,Wunderground v.1.15,2013-04-04 22:30:00,
2013-04-04 19:00:00,69.5,65.5,29.88,East,97,2.0,2.0,87,0.00,,,1.17,28,Wunderground v.1.15,2013-04-04 23:00:00,
2013-04-04 19:30:00,69.1,65.4,29.89,East,101,0.0,0.0,88,0.00,,,1.17,9,Wunderground v.1.15,2013-04-04 23:30:00,
2013-04-04 20:00:00,69.0,65.3,29.92,SE,138,0.0,0.0,88,0.00,,,1.18,0,Wunderground v.1.15,2013-04-05 00:00:00,
2013-04-04 20:30:00,69.1,65.4,29.94,SSE,148,0.0,0.0,88,0.00,,,1.18,0,Wunderground v.1.15,2013-04-05 00:30:00,
2013-04-04 21:00:00,68.4,65.4,29.94,SE,142,7.0,7.0,90,0.00,,,1.19,0,Wunderground v.1.15,2013-04-05 01:00:00,
2013-04-04 21:30:00,68.0,65.3,29.97,SE,145,7.0,13.0,91,0.00,,,1.19,0,Wunderground v.1.15,2013-04-05 01:30:00,
2013-04-04 22:00:00,68.1,65.7,29.94,SSE,157,21.0,21.0,92,0.00,,,1.20,0,Wunderground v.1.15,2013-04-05 02:00:00,
2013-04-04 22:30:00,68.3,65.9,29.92,SSE,150,22.0,25.0,92,0.00,,,1.20,0,Wunderground v.1.15,2013-04-05 02:30:00,
2013-04-04 23:00:00,68.2,66.4,29.94,SSE,155,24.0,27.0,94,0.00,,,1.21,0,Wunderground v.1.15,2013-04-05 03:00:00,
2013-04-04 23:30:00,68.2,66.7,29.94,SE,144,26.0,29.0,95,0.00,,,1.21,0,Wunderground v.1.15,2013-04-05 03:30:00,